Terminal Aerodrome Forecast
Issued by NWS Grand Rapids, MI

Home | Current Version | Previous Version | Text Only | Print | Product List | Glossary On
Versions: 1 2 3 4 5 6 7 8 9 10 11 12 13 14
000
FTUS43 KGRR 200500
TAFGRR
TAF
KGRR 200540Z 2006/2106 18006KT P6SM BKN230
     FM201200 16012KT P6SM BKN150
     FM201800 21016G26KT P6SM BKN250=

USA.gov is the U.S. government's official web portal to all federal, state and local government web resources and services.